Weather History for KPRN - March, 2013

Change the Weather History Date:

Thursday, March 21, 2013

  Actual Average Record
Temperature  
Mean Temperature 48 °F -  
Max Temperature 60 °F 72 °F 86 °F (1935)
Min Temperature 36 °F 46 °F 25 °F (1965)
Degree Days  
Heating Degree Days 17    
Moisture  
Dew Point 24 °F    
Average Humidity 42    
Maximum Humidity 82    
Minimum Humidity 19    
Precipitation  
Precipitation 0.00 in - - ()
Sea Level Pressure  
Sea Level Pressure 29.98 in    
Wind  
Wind Speed 5 mph (NNW)    
Max Wind Speed 12 mph    
Max Gust Speed 21 mph    
Visibility 10 miles    
Events      
Averages and records for this station are not official NWS values.
T = Trace of Precipitation, MM = Missing Value Source: NWS Daily Summary

Daily Weather History Graph

Daily Weather History Graph

Search for Another Location

Airport or City:

Trip Planner

Search our weather history database for the weather conditions in past years. The results will help you decide how hot, cold, wet, or windy it might be!

Date:

Astronomy

Mar. 21, 2013 Rise Set
Actual Time 6:48 AM CDT 6:58 PM CDT
Civil Twilight 6:24 AM CDT 7:23 PM CDT
Nautical Twilight 5:55 AM CDT 7:51 PM CDT
Astronomical Twilight 5:27 AM CDT 8:20 PM CDT
Moon 1:45 PM CDT (3/21) 2:52 AM CDT (3/21)
Length of Visible Light 12h 58m
Length of Day
12h 10m
Waxing Gibbous, 69% of the Moon is Illuminated
Mar 21
Waxing Gibbous
Mar 27
Full
Apr 2
Last Quarter
Apr 10
New
Apr 18
First Quarter

Hourly Weather History & Observations

Time (CDT) Temp. Windchill Dew Point Humidity Pressure Visibility Wind Dir Wind Speed Gust Speed Precip Events Conditions
12:56 AM 46.9 °F - 28.0 °F 48% 30.01 in 10.0 mi NW 5.8 mph - N/A   Clear
1:56 AM 45.0 °F 43.5 °F 28.9 °F 53% 30.00 in 10.0 mi NNW 3.5 mph - N/A   Clear
2:56 AM 44.1 °F 42.5 °F 28.9 °F 55% 30.00 in 10.0 mi West 3.5 mph - N/A   Clear
3:56 AM 39.0 °F - 32.0 °F 76% 29.98 in 10.0 mi Calm Calm - N/A   Clear
4:56 AM 36.0 °F 33.3 °F 30.9 °F 82% 29.99 in 10.0 mi NW 3.5 mph - N/A   Clear
5:56 AM 37.9 °F 35.5 °F 30.0 °F 73% 29.99 in 10.0 mi NW 3.5 mph - N/A   Clear
6:56 AM 37.9 °F 33.5 °F 28.9 °F 70% 30.01 in 10.0 mi NW 5.8 mph - N/A   Clear
7:56 AM 42.1 °F 40.2 °F 28.0 °F 58% 30.04 in 10.0 mi NW 3.5 mph - N/A   Clear
8:56 AM 46.0 °F 40.6 °F 25.0 °F 44% 30.04 in 10.0 mi North 11.5 mph - N/A   Clear
9:56 AM 46.9 °F - 16.0 °F 29% 30.05 in 10.0 mi NW 11.5 mph - N/A   Clear
10:56 AM 48.9 °F - 17.1 °F 28% 30.04 in 10.0 mi NNW 9.2 mph 16.1 mph N/A   Clear
11:56 AM 52.0 °F - 15.1 °F 23% 30.03 in 10.0 mi NNW 11.5 mph 20.7 mph N/A   Clear
12:56 PM 53.1 °F - 15.1 °F 22% 30.01 in 10.0 mi NW 10.4 mph 16.1 mph N/A   Clear
1:56 PM 57.0 °F - 17.1 °F 21% 29.97 in 10.0 mi North 4.6 mph - N/A   Clear
2:56 PM 60.1 °F - 19.0 °F 20% 29.95 in 10.0 mi West 9.2 mph 17.3 mph N/A   Clear
3:56 PM 59.0 °F - 16.0 °F 19% 29.93 in 10.0 mi Variable 5.8 mph - N/A   Clear
4:56 PM 59.0 °F - 18.0 °F 20% 29.92 in 10.0 mi West 8.1 mph - N/A   Clear
5:56 PM 57.9 °F - 19.9 °F 23% 29.92 in 10.0 mi NNW 3.5 mph - N/A   Clear
6:56 PM 55.9 °F - 21.9 °F 27% 29.93 in 10.0 mi NNW 3.5 mph - N/A   Clear
7:56 PM 54.0 °F - 26.1 °F 34% 29.94 in 10.0 mi NNW 3.5 mph - N/A   Mostly Cloudy
8:56 PM 52.0 °F - 32.0 °F 47% 29.93 in 10.0 mi Calm Calm - N/A   Mostly Cloudy
9:56 PM 51.1 °F - 30.9 °F 46% 29.96 in 10.0 mi Calm Calm - N/A   Mostly Cloudy
10:56 PM 50.0 °F - 30.0 °F 46% 29.94 in 10.0 mi NE 5.8 mph - N/A   Overcast
11:56 PM 50.0 °F - 24.1 °F 36% 29.95 in 10.0 mi NNE 3.5 mph - N/A   Scattered Clouds